UNISAT-6

Last updated on Mon Sep 15 2025 00:03:09 GMT+0000 (Coordinated Universal Time)

1 40012U 14033C 25257.20853941 .00002368 00000+0 27363-3 0 9993 2 40012 97.7548 50.8067 0046073 256.9558 102.6512 14.85777624605149
UTC large
Height (km)
Speed (km/s)
/
Latitude / Longitude
Inclination (degrees)
Orbital Period (minutes)
Azimuth
Elevation
Range (km)
Doppler Factor

Next 0 passes for location: London (51.5072 / 0.1276)

Sorry there are no passes over London.